INTELSAT 33E DEB, 61993

Orbit data source: Space-Track

INTELSAT 33E DEB, 61993 is space debris in GEO originally from a launch on Wed, 24 Aug 2016 UTC launched from the French Guiana (FRGUI). Debris objects in space refer to the collection of defunct objects orbiting the Earth. Examples of debris include non-operational satellites, rocket bodies, and fragments generated from explosions, collisions, or faulty payload assembly.

Loading next visibility...
Identifier
61993, 2016-053K
Orbit
GEO
Country
Flag of USUS / ITSO
Related business
Manufacturer
Boeing/ES
Mission
Spacecraft
Bus & Motor
Unknown
Mass
Unknown
Launch date (UTC)
2016-08-24 (10 years ago)
Launch vehicle
Unknown
Launch site
French Guiana (FRGUI)
Object type
Payload
Rocket body
Debris
Shape & HBR
Unknown shape, 1.1 m
Radar Cross Section
RCS unknown

Expand to show TLE details & history
Last TLE update: 16 hours ago

TLE from 16 hours ago
0 INTELSAT 33E DEB
1 61993U 16053K   26257.59591836 -.00000056  00000-0  00000-0 0  9993
2 61993   1.6889  75.3233 0083264 319.3238  40.8212  1.01203232  7049
Epoch: 2026-09-14T14:18Z
TLE epoch observation values (Epoch: 2026-09-14T14:18:07.346Z)
Latitude
-0°
Longitude
-132.01194°
Altitude
35,265.003 km
Speed
3.104 km/s
True Right ascension
05h 04m 22s
True Declination
0° 00' 00"
Sunlit
Object was in daylight at epoch
Visualization orbit readout
Latitude
Unknown
Longitude
Unknown
Altitude
Unknown
Speed
Unknown
Apparent Right ascension
Unknown
Apparent Declination
Unknown
Sunlit
N/A
Visualization observer readout
Local Sidereal Time
23:01:33
Azimuth
Unknown
Elevation
Unknown
Doppler factor
Unknown
Orbital elements
Apogee altitude
35,877.489 km
Perigee altitude
35,179.625 km
Semi-major axis
41,906.694 km
Eccentricity
0.00833
Inclination
1.6889°
RAAN
75.3233°
Arg. of periapsis
319.3238°
True anomaly
41.44986°
Mean anomaly
40.8212°
Eccentric anomaly
41.13503°
Mean motion
0.253 °/min
Orbital period
1,422.93 mins
BSTAR
0
Loading maneuver chart data...
Computing Atmospheric mass density...
Loading historical data...
Loading historical data...
Loading historical data...
Loading historical data...
Loading historical data...
Loading historical data...
Loading historical data...

Documentation

Showing up to 5 results
|